GW6919 Weather Reports


time (UTC)temp
C
wind
direction
speed
KPH
gust
KPH
rain 1hr
cm
rain 24hr
cm
rain mn
cm
humidity
%
barometer
mb
20260503131146 10 203 0.0 0.0 0.00 0.00 0.00 97 1011.6
20260503130643 10 203 0.0 0.0 0.00 0.00 0.00 97 1011.5
20260503130141 10 203 0.0 0.0 0.00 0.00 0.00 97 1011.4
20260503120106 11 208 0.0 0.0 0.00 0.00 0.00 96 1011.7
20260503110533 11 210 0.0 0.0 0.00 0.00 0.00 96 1011.8
20260503090420 12 231 0.0 0.0 0.00 0.00 0.00 94 1012.1
20260503081347 13 231 0.0 0.0 0.00 0.00 0.00 92 1012.1
20260503080843 13 232 0.0 0.0 0.00 0.00 0.00 92 1012.2
20260503080340 13 232 0.0 0.0 0.00 0.00 0.00 92 1012.4
20260503072817 14 234 0.0 0.0 0.00 0.00 0.00 90 1012.3
20260503072314 14 234 0.0 0.0 0.00 0.00 0.00 90 1012.4
20260503071810 14 235 0.0 0.0 0.00 0.00 0.00 90 1012.4
20260503071308 14 235 0.0 0.0 0.00 0.00 0.00 90 1012.4
20260503070803 14 235 0.0 0.0 0.00 0.00 0.00 89 1012.3
20260503070302 15 235 0.0 0.0 0.00 0.05 0.05 89 1012.3
20260503060226 15 228 0.0 1.6 0.00 0.05 0.05 86 1012.4
20260503054713 17 195 0.0 1.6 0.00 0.05 0.05 81 1011.6
20260503054211 16 180 0.0 1.6 0.00 0.05 0.05 81 1011.7
20260503053708 16 177 0.0 1.6 0.00 0.05 0.05 82 1011.9
20260503053207 16 183 0.0 1.6 0.00 0.05 0.05 82 1012.0
20260503052703 16 183 0.0 0.0 0.00 0.05 0.05 82 1012.2
20260503052159 16 183 0.0 0.0 0.00 0.05 0.05 81 1012.1
20260503051654 16 182 0.0 1.6 0.00 0.05 0.05 81 1012.2
20260503051153 17 197 0.0 0.0 0.00 0.05 0.05 81 1012.3
20260503050649 17 198 0.0 0.0 0.00 0.05 0.05 81 1012.2
20260503050146 17 214 0.0 0.0 0.00 0.05 0.05 81 1012.7
20260503045643 17 214 0.0 0.0 0.00 0.05 0.05 80 1012.5
20260503045140 17 214 0.0 0.0 0.00 0.05 0.05 80 1012.4
20260503044637 17 221 0.0 0.0 0.00 0.05 0.05 80 1012.4
20260503044135 17 220 0.0 0.0 0.00 0.05 0.05 79 1012.5
20260503043631 17 221 0.0 0.0 0.00 0.05 0.05 80 1012.7
20260503043128 17 181 0.0 0.0 0.00 0.05 0.05 78 1012.5
20260503042624 17 181 0.0 0.0 0.00 0.05 0.05 77 1012.3
20260503042120 17 181 0.0 0.0 0.00 0.05 0.05 77 1012.5
20260503041617 17 181 0.0 0.0 0.00 0.05 0.05 77 1012.5
20260503041115 17 205 0.0 0.0 0.00 0.05 0.05 77 1012.4
20260503040612 17 205 0.0 1.6 0.00 0.05 0.05 76 1012.3
20260503040109 18 222 0.0 0.0 0.00 0.05 0.05 76 1012.4
20260503035606 17 224 0.0 0.0 0.00 0.05 0.05 76 1012.4
20260503035104 18 224 0.0 0.0 0.00 0.05 0.05 76 1012.4
20260503034601 18 224 0.0 0.0 0.00 0.05 0.05 75 1012.4
20260503034058 18 225 0.0 0.0 0.00 0.05 0.05 76 1012.4
20260503033555 18 225 0.0 0.0 0.00 0.05 0.05 74 1012.3
20260503033053 18 226 0.0 0.0 0.00 0.05 0.05 74 1012.2
20260503032551 18 226 0.0 0.0 0.00 0.05 0.05 74 1012.4
20260503032049 18 228 0.0 0.0 0.00 0.05 0.05 74 1012.2
20260503031546 18 228 0.0 1.6 0.00 0.05 0.05 73 1012.3
20260503031043 18 244 4.8 8.0 0.00 0.05 0.05 73 1012.1
20260503030539 18 219 1.6 3.2 0.00 0.05 0.05 72 1012.0
20260503030036 18 245 1.6 3.2 0.00 0.05 0.05 72 1012.0
20260503025533 18 68 3.2 8.0 0.00 0.05 0.05 71 1012.0
20260503025031 19 220 1.6 4.8 0.00 0.05 0.05 71 1012.0
20260503024527 20 242 1.6 8.0 0.00 0.05 0.05 69 1011.8
20260503024024 20 244 3.2 8.0 0.00 0.05 0.05 69 1011.6
20260503023521 20 252 3.2 4.8 0.00 0.05 0.05 68 1011.8
20260503023019 20 262 1.6 3.2 0.00 0.05 0.05 69 1011.6
20260503022514 20 248 1.6 1.6 0.00 0.05 0.05 68 1011.5
20260503022009 21 241 1.6 3.2 0.00 0.05 0.05 68 1011.6
20260503021506 21 235 1.6 3.2 0.00 0.05 0.05 69 1011.5
20260503021003 21 239 1.6 1.6 0.00 0.05 0.05 66 1011.1
20260503020500 21 246 1.6 1.6 0.00 0.05 0.05 65 1011.0
20260503015956 21 234 1.6 1.6 0.00 0.05 0.05 66 1011.0
20260503015454 21 260 1.6 1.6 0.00 0.05 0.05 64 1010.8
20260503014950 21 243 1.6 1.6 0.00 0.05 0.05 64 1010.9
20260503014446 22 264 0.0 0.0 0.00 0.05 0.05 64 1010.8
20260503013945 21 258 0.0 0.0 0.00 0.05 0.05 64 1010.8
20260503013441 21 251 1.6 1.6 0.00 0.05 0.05 67 1010.9
20260503012939 21 244 0.0 3.2 0.00 0.05 0.05 65 1010.8
20260503012437 22 235 1.6 1.6 0.00 0.05 0.05 62 1010.7
20260503011933 22 240 1.6 1.6 0.00 0.05 0.05 62 1010.8
20260503011430 21 264 1.6 1.6 0.00 0.05 0.05 63 1010.8
20260503010927 22 229 1.6 3.2 0.00 0.05 0.05 62 1011.0
20260503010423 22 260 0.0 3.2 0.00 0.05 0.05 62 1010.7
20260503005920 22 244 1.6 1.6 0.00 0.05 0.05 62 1010.7
20260503005418 22 236 1.6 1.6 0.00 0.05 0.05 60 1010.8
20260503004914 22 270 0.0 3.2 0.00 0.05 0.05 60 1010.9
20260503004411 22 246 1.6 3.2 0.00 0.05 0.05 60 1010.9
20260503003909 22 250 1.6 3.2 0.00 0.05 0.05 59 1010.8
20260503003405 22 282 3.2 4.8 0.00 0.05 0.05 60 1010.7
20260503002903 22 210 1.6 3.2 0.00 0.05 0.05 60 1010.8
20260503002400 22 235 1.6 4.8 0.00 0.05 0.05 59 1010.8
20260503001856 22 246 0.0 3.2 0.00 0.05 0.05 60 1010.9
20260503001353 22 244 3.2 3.2 0.00 0.05 0.05 61 1011.0
20260503000850 22 268 4.8 8.0 0.00 0.05 0.05 58 1011.0
20260503000348 22 232 1.6 4.8 0.00 0.05 0.05 59 1011.0
20260502235844 22 273 4.8 8.0 0.00 0.05 0.05 60 1010.9
20260502235341 22 222 1.6 1.6 0.00 0.05 0.05 59 1011.0
20260502234838 22 238 1.6 9.7 0.00 0.05 0.05 59 1010.9
20260502234335 22 224 1.6 9.7 0.00 0.05 0.05 59 1011.2
20260502233832 22 277 3.2 4.8 0.00 0.05 0.05 59 1011.1
20260502233328 21 249 1.6 4.8 0.00 0.05 0.05 61 1011.2
20260502232825 21 243 1.6 4.8 0.00 0.05 0.05 61 1011.3
20260502232321 21 268 1.6 3.2 0.00 0.05 0.05 61 1011.4
20260502231818 22 262 3.2 9.7 0.00 0.05 0.05 60 1011.3
20260502231316 21 255 3.2 3.2 0.00 0.05 0.05 60 1011.3
20260502230814 21 244 1.6 8.0 0.00 0.05 0.05 60 1011.5
20260502230312 21 231 4.8 8.0 0.00 0.05 0.05 60 1011.6
20260502225808 21 261 1.6 3.2 0.00 0.05 0.05 60 1011.6
20260502225305 21 276 0.0 1.6 0.00 0.05 0.05 59 1011.7
20260502224801 20 223 1.6 3.2 0.00 0.05 0.05 61 1011.9
20260502224258 20 214 4.8 9.7 0.00 0.05 0.05 62 1012.1
20260502223755 20 259 3.2 8.0 0.00 0.05 0.05 62 1012.0
20260502223254 20 259 3.2 8.0 0.00 0.05 0.05 62 1012.0
20260502222751 20 252 1.6 4.8 0.00 0.05 0.05 62 1012.1
20260502222248 20 230 3.2 8.0 0.00 0.05 0.05 62 1012.3
20260502221743 20 251 1.6 3.2 0.00 0.05 0.05 62 1012.3
20260502221240 20 250 1.6 4.8 0.00 0.05 0.05 62 1012.4
20260502220737 20 272 0.0 3.2 0.00 0.05 0.05 62 1012.6
20260502220233 20 269 0.0 3.2 0.00 0.05 0.05 64 1012.7
20260502215730 19 284 1.6 4.8 0.00 0.05 0.05 65 1012.8
20260502215227 19 257 1.6 4.8 0.00 0.05 0.05 64 1012.6
20260502214724 19 269 0.0 4.8 0.00 0.05 0.05 65 1012.8
20260502214221 19 261 0.0 4.8 0.00 0.05 0.05 65 1012.9
20260502213718 20 263 3.2 8.0 0.00 0.05 0.05 62 1013.0